Weather in Belyy Omut

Russia / Tver Oblast     57˚33′09″N   34˚41′03″E
temp.,
°C
wind,
m/s
gust,
m/s
humid.,
%
clouds,
%
prec.,
mm/h
press.,
hPa
HPBL,
m
16 january, sat
sat1600:00−26˚nne229870 0.0 101541
03:00−25˚nne249885 0.0 101596
06:00−23˚n2598100 0.0 1013176
09:00−22˚n3696100 0.0 1014242
12:00−20˚nnw3797100 0.3 1013267
15:00−18˚nnw4893100 0.4 1012368
18:00−19˚nnw4994100 0.1 1012410
21:00−19˚nnw31096100 0.1 1012354
17 january, sun
sun1700:00−20˚nnw3896100 0.0 1013303
03:00−23˚nnw369679 0.0 1014131
06:00−24˚nnw25950 0.0 101588
09:00−24˚nnw22950 0.0 101627
12:00−20˚nnw12920 0.0 1017124
15:00−18˚nw12940 0.0 101872
18:00−21˚wnw12970 0.0 101820
21:00−20˚wsw129919 0.0 101820
18 january, mon
mon1800:00−20˚wsw129960 0.0 101820
03:00−19˚sw229866 0.0 101721
06:00−15˚sw129798 0.1 101648
09:00−14˚sw229796 0.3 101759
12:00−11˚wsw139498 0.2 1016207
15:00−11˚wnw139699 0.2 1016197
18:00−11˚wsw119797 0.3 101621
21:00−12˚wnw119793 0.4 101620
19 january, tue
tue1900:00−13˚nw129893 0.1 101620
03:00−13˚wnw119795 0.1 101620
06:00−15˚nw119992 0.0 101620
09:00−15˚wsw129893 0.1 101620
12:00−11˚w129694 0.0 101790
15:00−9˚wsw129789 0.1 101664
18:00−11˚wsw129777 0.1 101621
21:00−13˚wsw229679 0.1 101720
20 january, wed
wed2000:00−14˚sw229631 0.0 101720
03:00−15˚sw229615 0.0 101820
06:00−16˚ssw23950 0.0 101824
09:00−16˚ssw23960 0.0 101847
12:00−12˚s36920 0.0 1018245
15:00−10˚s499139 0.0 1016347
18:00−12˚s41091100 0.0 1015337
21:00−11˚s51289100 0.0 1013367